User: anonymous   Login
Location: Caltech
(34.1382°N, 118.1253°W)
Time: 01:07:56
(UTC-07:00)
Language:

ALOS - Orbit

View from above orbital plane
View from above orbital plane
View from above satellite
View from above satellite

Ground track
Ground track

The orbit data is extracted from the following two-line orbital elements,

1 28931U 06002A   16239.22015244  .00000198  00000-0  48110-4 0  9998
2 28931  97.8777 274.8097 0001863 120.1938 239.9449 14.62229092564359
Epoch (UTC): 26 August 2016 05:17:01
Eccentricity: 0.0001863
inclination: 97.8777°
perigee height: 684 km
apogee height: 687 km
right ascension of ascending node: 274.8097°
argument of perigee: 120.1938°
revolutions per day: 14.62229092
mean anomaly at epoch: 239.9449°
orbit number at epoch: 56435

The dashed part of the orbit path shows where the satellite is in the earth's shadow,  

DLR